BEIDOU-3S IGSO-2S (C56)

Last updated on Sat Aug 08 2026 00:03:27 GMT+0000 (Coordinated Universal Time)

1 40938U 15053A 26214.59725278 -.00000074 00000+0 00000+0 0 9998 2 40938 49.1518 258.2267 0066355 193.9763 165.8677 1.00249594 39814
UTC large
Height (km)
Speed (km/s)
/
Latitude / Longitude
Inclination (degrees)
Orbital Period (minutes)
Azimuth
Elevation
Range (km)
Doppler Factor

Next 0 passes for location: London (51.5072 / 0.1276)

No passes found over London.
BEIDOU-3S IGSO-2S (C56)